STARLINK-32901, 62895

Orbit data source: Space-Track

STARLINK-32901, 62895 is a payload satellite owned by SpaceX/Seattle (US) in LEO that was launched on Tue, 04 Feb 2025 UTC via an FALCON 9 launch vehicle from the Air Force Eastern Test Range (AFETR). Payload-class satellites include a variety of spacecraft equipped with specific instruments for various scientific and technological missions. These include communications satellites like Starlink; space stations such as the ISS; scientific satellites like the Hubble; Earth observation satellites from companies like Planet Labs, Umbra, and HawkEye 360; GPS; miniature CubeSats for education and research; and military/defense satellites.

Loading next visibility...
Identifier
62895, 2025-024S
Orbit
LEO
Country
Flag of USUS
Related business
Manufacturer
SpaceX/Seattle
Mission
Operational Commercial Communications
Bus & Motor
STARLINK V2M, Unknown motor
Mass
730 kg wet, ~700 kg dry
Launch date (UTC)
Icon of a cake. It is the launch day of the satellite!2025-02-04 (1 year ago)
Launch vehicle
FALCON 9
Launch site
Air Force Eastern Test Range (AFETR)
Object type
Payload
Rocket body
Debris
Shape & HBR
Box + 2 Pan, 17.7 m
Radar Cross Section
33.884 m², Large (>1 m²)

Expand to show TLE details & history
Last TLE update: 10 hours ago

TLE from 10 hours ago
0 STARLINK-32901
1 62895U 25024S   26035.38478603  .00028130  00000-0  10275-2 0  9999
2 62895  42.9940 153.3327 0001660 174.6442 185.4428 15.27592649 57177
Epoch: 2026-02-04T09:14Z
TLE epoch observation values (Epoch: 2026-02-04T09:14:05.512Z)
Latitude
-0.00001°
Longitude
-119.74241°
Altitude
483.92 km
Speed
7.625 km/s
True Right ascension
10h 13m 19s
True Declination
0° 00' 00"
Sunlit
Object was in full shadow at epoch
Visualization orbit readout
Latitude
Unknown
Longitude
Unknown
Altitude
Unknown
Speed
Unknown
Apparent Right ascension
Unknown
Apparent Declination
Unknown
Sunlit
N/A
Visualization observer readout
Local Sidereal Time
21:37:25
Azimuth
Unknown
Elevation
Unknown
Doppler factor
Unknown
Orbital elements
Apogee altitude
486.097 km
Perigee altitude
483.818 km
Semi-major axis
6,863.094 km
Eccentricity
0.00017
Inclination
42.994°
RAAN
153.3327°
Arg. of periapsis
174.6442°
True anomaly
185.441°
Mean anomaly
185.4428°
Eccentric anomaly
185.4419°
Mean motion
3.81736 °/min
Orbital period
94.31 mins
BSTAR
0.0010275
Loading maneuver chart data...
Computing Atmospheric mass density...
Loading historical data...
Loading historical data...
Loading historical data...
Loading historical data...
Loading historical data...
Loading historical data...
Loading historical data...

Documentation

Showing up to 5 results
|